Location: Les Gen�tes
(46.3104°N, 1.5969°E)
Time: 18:33:48
(UTC+00:00)

Lacrosse 5 - Pass Details

Date: 01 June 2020
Orbit: 714 x 723 km, 57.0° (Epoch: 01 July)

Event Time Altitude Azimuth Distance (km) Brightness Sun altitude
Rises 21:12:05 0° 302° (WNW) 3,121 6.6 -12.6°
Reaches altitude 10° 21:14:47 10° 290° (WNW) 2,197 5.3 -12.8°
Maximum altitude 21:18:55 26° 235° (SW) 1,390 3.4 -13.3°
Enters shadow 21:22:27 13° 184° (S) 2,004 3.7 -13.6°
